Location: Bonningues
(50.7927°N, 2.0150°E)
Time: 10:23:52
(UTC+00:00)

NOSS 3-2 (A) - Pass Details

Date: 08 August 2020
Orbit: 796 x 1412 km, 63.4° (Epoch: 16 September)

Event Time Altitude Azimuth Distance (km) Brightness Sun altitude
Rises 21:24:47 0° 202° (SSW) 3,360 6.0 -15.5°
Reaches altitude 10° 21:27:09 10° 198° (SSW) 2,477 5.3 -15.7°
Maximum altitude 21:32:40 52° 123° (ESE) 1,137 3.5 -16.2°
Drops below altitude 10° 21:38:59 10° 49° (NE) 2,834 6.0 -16.8°
Sets 21:41:52 0° 45° (NE) 3,890 6.8 -17.1°
